contact: severine.martini@mio.osupytheas.fr, dominique.lefevre@mio.osupytheas.fr
Project:EMSO Ligure-ouest http://www.emso-fr.org/EMSO-France
Sensor Microcat Sea-Bird SBE37 SMP,  Serial 57510 
DOI : "https://doi.org/10.17882/97948" 
Title:EMSO Ligure Ouest : Data Bathybot capteur Microcat - deploiement 2023-04-28
Datetime,Profondeur,Latitude,Longitude,Temperature,Conductivite,Pression,Salinite
time,m,degree_north,degree_east,degree_C,S/m,db,PSU 
2024-01-01T00:00:49,2420,42.8014,5.9826,13.2983,4.59922,2453.627,38.4878
2024-01-01T00:03:49,2420,42.8014,5.9826,13.2981,4.59911,2453.664,38.4869
2024-01-01T00:06:50,2420,42.8014,5.9826,13.2982,4.59902,2453.649,38.4860
2024-01-01T00:09:49,2420,42.8014,5.9826,13.2980,4.59909,2453.649,38.4868
2024-01-01T00:12:49,2420,42.8014,5.9826,13.2981,4.59904,2453.672,38.4863
2024-01-01T00:15:50,2420,42.8014,5.9826,13.2980,4.59900,2453.672,38.4860
2024-01-01T00:18:49,2420,42.8014,5.9826,13.2982,4.59900,2453.649,38.4859
2024-01-01T00:21:49,2420,42.8014,5.9826,13.2986,4.59908,2453.627,38.4862
2024-01-01T00:24:50,2420,42.8014,5.9826,13.2979,4.59903,2453.649,38.4863
2024-01-01T00:27:49,2420,42.8014,5.9826,13.2982,4.59897,2453.649,38.4855
2024-01-01T00:30:49,2420,42.8014,5.9826,13.2979,4.59906,2453.649,38.4867
2024-01-01T00:33:49,2420,42.8014,5.9826,13.2979,4.59905,2453.635,38.4866
2024-01-01T00:36:49,2420,42.8014,5.9826,13.2984,4.59917,2453.627,38.4873
2024-01-01T00:39:49,2420,42.8014,5.9826,13.2987,4.59911,2453.649,38.4863
2024-01-01T00:42:49,2420,42.8014,5.9826,13.2980,4.59903,2453.627,38.4863
2024-01-01T00:45:49,2420,42.8014,5.9826,13.2978,4.59911,2453.627,38.4873
2024-01-01T00:48:49,2420,42.8014,5.9826,13.2982,4.59914,2453.627,38.4872
2024-01-01T00:51:49,2420,42.8014,5.9826,13.2985,4.59906,2453.627,38.4861
2024-01-01T00:54:49,2420,42.8014,5.9826,13.2981,4.59900,2453.627,38.4860
2024-01-01T00:57:49,2420,42.8014,5.9826,13.2981,4.59902,2453.604,38.4861
2024-01-01T01:00:50,2420,42.8014,5.9826,13.2978,4.59905,2453.627,38.4867
2024-01-01T01:03:49,2420,42.8014,5.9826,13.2979,4.59908,2453.619,38.4869
2024-01-01T01:06:49,2420,42.8014,5.9826,13.2983,4.59904,2453.604,38.4861
2024-01-01T01:09:49,2420,42.8014,5.9826,13.2982,4.59914,2453.649,38.4871
2024-01-01T01:12:49,2420,42.8014,5.9826,13.2980,4.59900,2453.627,38.4860
2024-01-01T01:15:49,2420,42.8014,5.9826,13.2979,4.59903,2453.604,38.4863
2024-01-01T01:18:49,2420,42.8014,5.9826,13.2979,4.59901,2453.604,38.4862
2024-01-01T01:21:49,2420,42.8014,5.9826,13.2979,4.59906,2453.627,38.4866
2024-01-01T01:24:49,2420,42.8014,5.9826,13.2979,4.59917,2453.604,38.4877
2024-01-01T01:27:49,2420,42.8014,5.9826,13.2978,4.59909,2453.619,38.4871
2024-01-01T01:30:50,2420,42.8014,5.9826,13.2982,4.59907,2453.612,38.4865
2024-01-01T01:33:49,2420,42.8014,5.9826,13.2978,4.59912,2453.604,38.4874
2024-01-01T01:36:49,2420,42.8014,5.9826,13.2982,4.59908,2453.627,38.4866
2024-01-01T01:39:49,2420,42.8014,5.9826,13.2980,4.59907,2453.604,38.4867
2024-01-01T01:42:49,2420,42.8014,5.9826,13.2981,4.59915,2453.627,38.4874
2024-01-01T01:45:49,2420,42.8014,5.9826,13.2982,4.59909,2453.582,38.4867
2024-01-01T01:48:49,2420,42.8014,5.9826,13.2982,4.59918,2453.582,38.4876
2024-01-01T01:51:49,2420,42.8014,5.9826,13.2986,4.59907,2453.604,38.4861
2024-01-01T01:54:49,2420,42.8014,5.9826,13.2986,4.59965,2453.604,38.4915
2024-01-01T01:57:50,2420,42.8014,5.9826,13.2993,4.59954,2453.590,38.4899
2024-01-01T02:00:49,2420,42.8014,5.9826,13.3113,4.59945,2453.604,38.4770
2024-01-01T02:03:49,2420,42.8014,5.9826,13.3094,4.59952,2453.604,38.4796
2024-01-01T02:06:49,2420,42.8014,5.9826,13.3044,4.59922,2453.604,38.4818
2024-01-01T02:09:49,2420,42.8014,5.9826,13.3043,4.59917,2453.582,38.4813
2024-01-01T02:12:49,2420,42.8014,5.9826,13.3172,4.59952,2453.582,38.4719
2024-01-01T02:15:49,2420,42.8014,5.9826,13.3126,4.60022,2453.559,38.4830
2024-01-01T02:18:49,2420,42.8014,5.9826,13.3096,4.59970,2453.582,38.4811
2024-01-01T02:21:49,2420,42.8014,5.9826,13.3074,4.59982,2453.574,38.4844
2024-01-01T02:24:49,2420,42.8014,5.9826,13.3189,4.59959,2453.596,38.4708
2024-01-01T02:27:49,2420,42.8014,5.9826,13.3102,4.59937,2453.582,38.4774
2024-01-01T02:30:49,2420,42.8014,5.9826,13.3162,4.59962,2453.604,38.4738
2024-01-01T02:33:49,2420,42.8014,5.9826,13.3101,4.59970,2453.582,38.4806
2024-01-01T02:36:49,2420,42.8014,5.9826,13.3156,4.59979,2453.604,38.4760
2024-01-01T02:39:49,2420,42.8014,5.9826,13.3168,4.59936,2453.582,38.4708
2024-01-01T02:42:49,2420,42.8014,5.9826,13.3075,4.60008,2453.582,38.4868
2024-01-01T02:45:49,2420,42.8014,5.9826,13.3146,4.59965,2453.582,38.4757
2024-01-01T02:48:49,2420,42.8014,5.9826,13.3067,4.60011,2453.619,38.4879
2024-01-01T02:51:49,2420,42.8014,5.9826,13.3182,4.59978,2453.559,38.4734
2024-01-01T02:54:49,2420,42.8014,5.9826,13.3162,4.59967,2453.582,38.4743
2024-01-01T02:57:49,2420,42.8014,5.9826,13.3125,4.59964,2453.604,38.4777
2024-01-01T03:00:50,2420,42.8014,5.9826,13.3130,4.59957,2453.559,38.4766
2024-01-01T03:03:49,2420,42.8014,5.9826,13.3023,4.60024,2453.559,38.4935
2024-01-01T03:06:49,2420,42.8014,5.9826,13.3138,4.59993,2453.559,38.4791
2024-01-01T03:09:49,2420,42.8014,5.9826,13.3015,4.59974,2453.582,38.4896
2024-01-01T03:12:49,2420,42.8014,5.9826,13.3002,4.59994,2453.596,38.4927
2024-01-01T03:15:49,2420,42.8014,5.9826,13.3005,4.60008,2453.582,38.4938
2024-01-01T03:18:49,2420,42.8014,5.9826,13.3056,4.59962,2453.559,38.4844
2024-01-01T03:21:49,2420,42.8014,5.9826,13.3003,4.60022,2453.559,38.4952
2024-01-01T03:24:49,2420,42.8014,5.9826,13.3003,4.60014,2453.582,38.4945
2024-01-01T03:27:50,2420,42.8014,5.9826,13.3019,4.59979,2453.559,38.4896
2024-01-01T03:30:49,2420,42.8014,5.9826,13.3004,4.59928,2453.559,38.4864
2024-01-01T03:33:49,2420,42.8014,5.9826,13.3001,4.59971,2453.619,38.4906
2024-01-01T03:36:49,2420,42.8014,5.9826,13.3003,4.59959,2453.582,38.4894
2024-01-01T03:39:49,2420,42.8014,5.9826,13.3004,4.59959,2453.559,38.4892
2024-01-01T03:42:49,2420,42.8014,5.9826,13.2991,4.60020,2453.559,38.4963
2024-01-01T03:45:49,2420,42.8014,5.9826,13.3002,4.59927,2453.559,38.4864
2024-01-01T03:48:49,2420,42.8014,5.9826,13.3000,4.59940,2453.559,38.4878
2024-01-01T03:51:49,2420,42.8014,5.9826,13.3006,4.59963,2453.596,38.4894
2024-01-01T03:54:49,2420,42.8014,5.9826,13.3041,4.59938,2453.574,38.4836
2024-01-01T03:57:50,2420,42.8014,5.9826,13.3026,4.59971,2453.582,38.4882
2024-01-01T04:00:49,2420,42.8014,5.9826,13.3017,4.59947,2453.596,38.4868
2024-01-01T04:03:49,2420,42.8014,5.9826,13.3072,4.60003,2453.574,38.4866
2024-01-01T04:06:49,2420,42.8014,5.9826,13.3029,4.60008,2453.596,38.4914
2024-01-01T04:09:49,2420,42.8014,5.9826,13.3019,4.59981,2453.582,38.4898
2024-01-01T04:12:49,2420,42.8014,5.9826,13.3040,4.59918,2453.596,38.4818
2024-01-01T04:15:49,2420,42.8014,5.9826,13.3011,4.59909,2453.574,38.4839
2024-01-01T04:18:49,2420,42.8014,5.9826,13.2995,4.59900,2453.559,38.4846
2024-01-01T04:21:49,2420,42.8014,5.9826,13.2981,4.59898,2453.582,38.4858
2024-01-01T04:24:49,2420,42.8014,5.9826,13.2973,4.59897,2453.582,38.4865
2024-01-01T04:27:49,2420,42.8014,5.9826,13.2983,4.59895,2453.559,38.4853
2024-01-01T04:30:49,2420,42.8014,5.9826,13.2977,4.59894,2453.559,38.4858
2024-01-01T04:33:50,2420,42.8014,5.9826,13.2977,4.59892,2453.582,38.4856
2024-01-01T04:36:49,2420,42.8014,5.9826,13.2975,4.59892,2453.582,38.4858
2024-01-01T04:39:49,2420,42.8014,5.9826,13.2977,4.59894,2453.559,38.4858
2024-01-01T04:42:50,2420,42.8014,5.9826,13.2977,4.59892,2453.559,38.4856
2024-01-01T04:45:49,2420,42.8014,5.9826,13.2978,4.59894,2453.582,38.4858
2024-01-01T04:48:49,2420,42.8014,5.9826,13.2977,4.59895,2453.582,38.4859
2024-01-01T04:51:49,2420,42.8014,5.9826,13.2978,4.59892,2453.582,38.4855
2024-01-01T04:54:49,2420,42.8014,5.9826,13.2982,4.59901,2453.596,38.4860
2024-01-01T04:57:49,2420,42.8014,5.9826,13.2978,4.59891,2453.619,38.4855
2024-01-01T05:00:49,2420,42.8014,5.9826,13.2976,4.59892,2453.582,38.4857
2024-01-01T05:03:49,2420,42.8014,5.9826,13.2979,4.59891,2453.559,38.4854
2024-01-01T05:06:49,2420,42.8014,5.9826,13.2977,4.59892,2453.582,38.4856
2024-01-01T05:09:49,2420,42.8014,5.9826,13.2970,4.59891,2453.582,38.4863
2024-01-01T05:12:50,2420,42.8014,5.9826,13.2974,4.59895,2453.559,38.4862
2024-01-01T05:15:49,2420,42.8014,5.9826,13.2973,4.59894,2453.590,38.4862
2024-01-01T05:18:49,2420,42.8014,5.9826,13.2976,4.59895,2453.559,38.4860
2024-01-01T05:21:49,2420,42.8014,5.9826,13.2978,4.59911,2453.559,38.4873
2024-01-01T05:24:49,2420,42.8014,5.9826,13.2978,4.59896,2453.604,38.4859
2024-01-01T05:27:49,2420,42.8014,5.9826,13.2975,4.59905,2453.582,38.4870
2024-01-01T05:30:49,2420,42.8014,5.9826,13.2975,4.59907,2453.604,38.4872
2024-01-01T05:33:49,2420,42.8014,5.9826,13.2973,4.59932,2453.582,38.4898
2024-01-01T05:36:49,2420,42.8014,5.9826,13.2975,4.59893,2453.604,38.4859
2024-01-01T05:39:49,2420,42.8014,5.9826,13.2975,4.59906,2453.582,38.4871
2024-01-01T05:42:49,2420,42.8014,5.9826,13.2974,4.59894,2453.604,38.4861
2024-01-01T05:45:49,2420,42.8014,5.9826,13.2973,4.59900,2453.604,38.4868
2024-01-01T05:48:49,2420,42.8014,5.9826,13.2979,4.59905,2453.604,38.4866
2024-01-01T05:51:49,2420,42.8014,5.9826,13.2981,4.59896,2453.590,38.4856
2024-01-01T05:54:49,2420,42.8014,5.9826,13.2988,4.59894,2453.604,38.4847
2024-01-01T05:57:49,2420,42.8014,5.9826,13.2978,4.59894,2453.582,38.4856
2024-01-01T06:00:49,2420,42.8014,5.9826,13.2978,4.59893,2453.604,38.4855
2024-01-01T06:03:49,2420,42.8014,5.9826,13.2975,4.59893,2453.604,38.4858
2024-01-01T06:06:49,2420,42.8014,5.9826,13.2980,4.59893,2453.627,38.4854
2024-01-01T06:09:49,2420,42.8014,5.9826,13.2975,4.59892,2453.604,38.4858
2024-01-01T06:12:49,2420,42.8014,5.9826,13.2991,4.59894,2453.604,38.4843
2024-01-01T06:15:49,2420,42.8014,5.9826,13.2978,4.59894,2453.604,38.4857
2024-01-01T06:18:49,2420,42.8014,5.9826,13.2988,4.59902,2453.604,38.4854
2024-01-01T06:21:49,2420,42.8014,5.9826,13.2978,4.59894,2453.627,38.4857
2024-01-01T06:24:50,2420,42.8014,5.9826,13.3009,4.59897,2453.627,38.4829
2024-01-01T06:27:49,2420,42.8014,5.9826,13.2990,4.59894,2453.619,38.4845
2024-01-01T06:30:49,2420,42.8014,5.9826,13.2978,4.59894,2453.627,38.4857
2024-01-01T06:33:49,2420,42.8014,5.9826,13.2987,4.59895,2453.627,38.4849
2024-01-01T06:36:49,2420,42.8014,5.9826,13.2982,4.59894,2453.649,38.4853
2024-01-01T06:39:49,2420,42.8014,5.9826,13.2997,4.59900,2453.627,38.4844
2024-01-01T06:42:49,2420,42.8014,5.9826,13.2979,4.59893,2453.627,38.4855
2024-01-01T06:45:50,2420,42.8014,5.9826,13.2978,4.59894,2453.627,38.4856
2024-01-01T06:48:49,2420,42.8014,5.9826,13.2979,4.59893,2453.627,38.4855
2024-01-01T06:51:49,2420,42.8014,5.9826,13.2979,4.59894,2453.649,38.4855
2024-01-01T06:54:49,2420,42.8014,5.9826,13.2979,4.59894,2453.649,38.4855
2024-01-01T06:57:49,2420,42.8014,5.9826,13.2980,4.59892,2453.649,38.4853
2024-01-01T07:00:49,2420,42.8014,5.9826,13.2978,4.59894,2453.627,38.4856
2024-01-01T07:03:49,2420,42.8014,5.9826,13.2986,4.59892,2453.672,38.4847
2024-01-01T07:06:49,2420,42.8014,5.9826,13.2979,4.59917,2453.627,38.4877
2024-01-01T07:09:49,2420,42.8014,5.9826,13.2985,4.59894,2453.649,38.4849
2024-01-01T07:12:49,2420,42.8014,5.9826,13.2996,4.59894,2453.635,38.4840
2024-01-01T07:15:49,2420,42.8014,5.9826,13.2981,4.59894,2453.672,38.4853
2024-01-01T07:18:49,2420,42.8014,5.9826,13.2982,4.59894,2453.672,38.4853
2024-01-01T07:21:49,2420,42.8014,5.9826,13.2978,4.59895,2453.672,38.4858
2024-01-01T07:24:49,2420,42.8014,5.9826,13.3001,4.59903,2453.672,38.4841
2024-01-01T07:27:49,2420,42.8014,5.9826,13.2985,4.59894,2453.709,38.4850
2024-01-01T07:30:50,2420,42.8014,5.9826,13.2988,4.59894,2453.649,38.4847
2024-01-01T07:33:49,2420,42.8014,5.9826,13.2982,4.59894,2453.649,38.4852
2024-01-01T07:36:49,2420,42.8014,5.9826,13.2978,4.59894,2453.695,38.4856
2024-01-01T07:39:49,2420,42.8014,5.9826,13.2977,4.59894,2453.695,38.4858
2024-01-01T07:42:49,2420,42.8014,5.9826,13.2982,4.59894,2453.695,38.4853
2024-01-01T07:45:49,2420,42.8014,5.9826,13.2979,4.59894,2453.717,38.4855
2024-01-01T07:48:50,2420,42.8014,5.9826,13.2982,4.59894,2453.672,38.4853
2024-01-01T07:51:49,2420,42.8014,5.9826,13.2983,4.59894,2453.717,38.4851
2024-01-01T07:54:49,2420,42.8014,5.9826,13.2989,4.59894,2453.717,38.4846
2024-01-01T07:57:50,2420,42.8014,5.9826,13.2981,4.59894,2453.732,38.4854
2024-01-01T08:00:49,2420,42.8014,5.9826,13.2983,4.59894,2453.717,38.4852
2024-01-01T08:03:49,2420,42.8014,5.9826,13.2978,4.59894,2453.740,38.4857
2024-01-01T08:06:49,2420,42.8014,5.9826,13.2982,4.59894,2453.695,38.4852
2024-01-01T08:09:49,2420,42.8014,5.9826,13.2980,4.59894,2453.717,38.4854
2024-01-01T08:12:49,2420,42.8014,5.9826,13.2980,4.59894,2453.717,38.4854
2024-01-01T08:15:50,2420,42.8014,5.9826,13.2980,4.59895,2453.740,38.4855
2024-01-01T08:18:49,2420,42.8014,5.9826,13.2986,4.59894,2453.717,38.4849
2024-01-01T08:21:49,2420,42.8014,5.9826,13.2985,4.59894,2453.717,38.4849
2024-01-01T08:24:50,2420,42.8014,5.9826,13.2983,4.59894,2453.740,38.4852
2024-01-01T08:27:49,2420,42.8014,5.9826,13.2988,4.59895,2453.762,38.4848
2024-01-01T08:30:49,2420,42.8014,5.9826,13.2978,4.59894,2453.740,38.4856
2024-01-01T08:33:49,2420,42.8014,5.9826,13.2978,4.59894,2453.754,38.4857
2024-01-01T08:36:49,2420,42.8014,5.9826,13.2986,4.59895,2453.725,38.4849
2024-01-01T08:39:49,2420,42.8014,5.9826,13.2982,4.59894,2453.748,38.4852
2024-01-01T08:42:49,2420,42.8014,5.9826,13.2976,4.59894,2453.785,38.4858
2024-01-01T08:45:49,2420,42.8014,5.9826,13.2979,4.59894,2453.740,38.4855
2024-01-01T08:48:49,2420,42.8014,5.9826,13.2978,4.59894,2453.762,38.4857
2024-01-01T08:51:49,2420,42.8014,5.9826,13.2983,4.59894,2453.762,38.4852
2024-01-01T08:54:49,2420,42.8014,5.9826,13.2978,4.59894,2453.740,38.4856
2024-01-01T08:57:49,2420,42.8014,5.9826,13.2976,4.59894,2453.785,38.4858
2024-01-01T09:00:49,2420,42.8014,5.9826,13.2979,4.59894,2453.762,38.4856
2024-01-01T09:03:49,2420,42.8014,5.9826,13.2981,4.59894,2453.762,38.4854
2024-01-01T09:06:49,2420,42.8014,5.9826,13.2981,4.59894,2453.762,38.4854
2024-01-01T09:09:49,2420,42.8014,5.9826,13.2984,4.59894,2453.785,38.4850
2024-01-01T09:12:49,2420,42.8014,5.9826,13.2979,4.59894,2453.762,38.4856
2024-01-01T09:15:49,2420,42.8014,5.9826,13.2982,4.59894,2453.762,38.4852
2024-01-01T09:18:49,2420,42.8014,5.9826,13.2979,4.59895,2453.762,38.4856
2024-01-01T09:21:49,2420,42.8014,5.9826,13.2980,4.59894,2453.785,38.4854
2024-01-01T09:24:49,2420,42.8014,5.9826,13.2980,4.59894,2453.785,38.4854
2024-01-01T09:27:49,2420,42.8014,5.9826,13.2982,4.59894,2453.740,38.4853
2024-01-01T09:30:49,2420,42.8014,5.9826,13.2979,4.59895,2453.785,38.4856
2024-01-01T09:33:49,2420,42.8014,5.9826,13.2978,4.59895,2453.785,38.4858
2024-01-01T09:36:49,2420,42.8014,5.9826,13.2984,4.59895,2453.807,38.4851
2024-01-01T09:39:49,2420,42.8014,5.9826,13.2979,4.59895,2453.785,38.4856
2024-01-01T09:42:49,2420,42.8014,5.9826,13.2975,4.59894,2453.762,38.4859
2024-01-01T09:45:50,2420,42.8014,5.9826,13.2983,4.59894,2453.785,38.4851
2024-01-01T09:48:49,2420,42.8014,5.9826,13.2978,4.59895,2453.785,38.4858
2024-01-01T09:51:49,2420,42.8014,5.9826,13.2979,4.59895,2453.762,38.4856
2024-01-01T09:54:49,2420,42.8014,5.9826,13.2985,4.59896,2453.754,38.4851
2024-01-01T09:57:49,2420,42.8014,5.9826,13.2979,4.59895,2453.785,38.4856
2024-01-01T10:00:49,2420,42.8014,5.9826,13.2982,4.59895,2453.822,38.4854
2024-01-01T10:03:49,2420,42.8014,5.9826,13.2984,4.59894,2453.785,38.4850
2024-01-01T10:06:50,2420,42.8014,5.9826,13.2983,4.59894,2453.785,38.4851
2024-01-01T10:09:49,2420,42.8014,5.9826,13.2978,4.59895,2453.807,38.4858
2024-01-01T10:12:49,2420,42.8014,5.9826,13.2979,4.59895,2453.762,38.4856
2024-01-01T10:15:50,2420,42.8014,5.9826,13.2980,4.59894,2453.785,38.4854
2024-01-01T10:18:49,2420,42.8014,5.9826,13.2977,4.59895,2453.807,38.4858
2024-01-01T10:21:49,2420,42.8014,5.9826,13.2982,4.59894,2453.807,38.4853
2024-01-01T10:24:50,2420,42.8014,5.9826,13.2979,4.59894,2453.822,38.4855
2024-01-01T10:27:49,2420,42.8014,5.9826,13.2980,4.59894,2453.793,38.4854
2024-01-01T10:30:49,2420,42.8014,5.9826,13.2982,4.59895,2453.785,38.4853
2024-01-01T10:33:49,2420,42.8014,5.9826,13.2977,4.59895,2453.807,38.4858
2024-01-01T10:36:49,2420,42.8014,5.9826,13.2981,4.59894,2453.762,38.4854
2024-01-01T10:39:49,2420,42.8014,5.9826,13.2979,4.59894,2453.807,38.4855
2024-01-01T10:42:49,2420,42.8014,5.9826,13.2978,4.59894,2453.807,38.4857
2024-01-01T10:45:49,2420,42.8014,5.9826,13.2977,4.59894,2453.785,38.4858
2024-01-01T10:48:49,2420,42.8014,5.9826,13.2982,4.59895,2453.785,38.4854
2024-01-01T10:51:49,2420,42.8014,5.9826,13.2982,4.59894,2453.807,38.4852
2024-01-01T10:54:49,2420,42.8014,5.9826,13.2980,4.59894,2453.807,38.4854
2024-01-01T10:57:49,2420,42.8014,5.9826,13.2981,4.59895,2453.807,38.4854
2024-01-01T11:00:49,2420,42.8014,5.9826,13.2974,4.59895,2453.785,38.4861
2024-01-01T11:03:49,2420,42.8014,5.9826,13.2983,4.59894,2453.785,38.4851
2024-01-01T11:06:49,2420,42.8014,5.9826,13.2978,4.59894,2453.785,38.4857
2024-01-01T11:09:49,2420,42.8014,5.9826,13.2979,4.59895,2453.830,38.4856
2024-01-01T11:12:49,2420,42.8014,5.9826,13.2978,4.59894,2453.830,38.4856
2024-01-01T11:15:49,2420,42.8014,5.9826,13.2973,4.59894,2453.785,38.4861
2024-01-01T11:18:50,2420,42.8014,5.9826,13.2975,4.59894,2453.785,38.4859
2024-01-01T11:21:49,2420,42.8014,5.9826,13.2981,4.59895,2453.785,38.4854
2024-01-01T11:24:49,2420,42.8014,5.9826,13.2978,4.59894,2453.785,38.4857
2024-01-01T11:27:50,2420,42.8014,5.9826,13.2978,4.59894,2453.785,38.4856
2024-01-01T11:30:49,2420,42.8014,5.9826,13.2975,4.59894,2453.762,38.4859
2024-01-01T11:33:49,2420,42.8014,5.9826,13.2978,4.59894,2453.800,38.4857
2024-01-01T11:36:49,2420,42.8014,5.9826,13.2977,4.59894,2453.807,38.4857
2024-01-01T11:39:49,2420,42.8014,5.9826,13.2978,4.59894,2453.800,38.4855
2024-01-01T11:42:49,2420,42.8014,5.9826,13.2978,4.59894,2453.807,38.4855
2024-01-01T11:45:49,2420,42.8014,5.9826,13.2979,4.59894,2453.785,38.4855
2024-01-01T11:48:49,2420,42.8014,5.9826,13.2976,4.59893,2453.762,38.4857
2024-01-01T11:51:49,2420,42.8014,5.9826,13.2976,4.59894,2453.770,38.4858
2024-01-01T11:54:49,2420,42.8014,5.9826,13.2981,4.59895,2453.762,38.4854
2024-01-01T11:57:50,2420,42.8014,5.9826,13.2976,4.59894,2453.748,38.4858
2024-01-01T12:00:49,2420,42.8014,5.9826,13.2978,4.59894,2453.762,38.4856
2024-01-01T12:03:49,2420,42.8014,5.9826,13.2978,4.59894,2453.807,38.4856
2024-01-01T12:06:49,2420,42.8014,5.9826,13.2975,4.59894,2453.762,38.4860
2024-01-01T12:09:49,2420,42.8014,5.9826,13.2976,4.59894,2453.785,38.4858
2024-01-01T12:12:49,2420,42.8014,5.9826,13.2974,4.59894,2453.762,38.4860
2024-01-01T12:15:49,2420,42.8014,5.9826,13.2980,4.59894,2453.785,38.4854
2024-01-01T12:18:49,2420,42.8014,5.9826,13.2976,4.59894,2453.785,38.4858
2024-01-01T12:21:49,2420,42.8014,5.9826,13.2977,4.59894,2453.770,38.4857
2024-01-01T12:24:50,2420,42.8014,5.9826,13.2979,4.59894,2453.740,38.4855
2024-01-01T12:27:49,2420,42.8014,5.9826,13.2977,4.59895,2453.748,38.4859
2024-01-01T12:30:49,2420,42.8014,5.9826,13.2977,4.59894,2453.762,38.4858
2024-01-01T12:33:49,2420,42.8014,5.9826,13.2975,4.59894,2453.785,38.4858
2024-01-01T12:36:49,2420,42.8014,5.9826,13.2978,4.59894,2453.770,38.4857
2024-01-01T12:39:49,2420,42.8014,5.9826,13.2979,4.59894,2453.762,38.4855
2024-01-01T12:42:49,2420,42.8014,5.9826,13.2979,4.59894,2453.725,38.4855
2024-01-01T12:45:49,2420,42.8014,5.9826,13.2974,4.59894,2453.717,38.4860
2024-01-01T12:48:49,2420,42.8014,5.9826,13.2977,4.59894,2453.762,38.4858
2024-01-01T12:51:49,2420,42.8014,5.9826,13.2980,4.59894,2453.740,38.4854
2024-01-01T12:54:49,2420,42.8014,5.9826,13.2975,4.59894,2453.754,38.4859
2024-01-01T12:57:49,2420,42.8014,5.9826,13.2985,4.59894,2453.785,38.4849
2024-01-01T13:00:49,2420,42.8014,5.9826,13.2978,4.59894,2453.740,38.4856
2024-01-01T13:03:49,2420,42.8014,5.9826,13.2979,4.59894,2453.740,38.4855
2024-01-01T13:06:49,2420,42.8014,5.9826,13.2978,4.59893,2453.740,38.4855
2024-01-01T13:09:49,2420,42.8014,5.9826,13.2979,4.59894,2453.740,38.4856
2024-01-01T13:12:49,2420,42.8014,5.9826,13.2978,4.59894,2453.740,38.4857
2024-01-01T13:15:49,2420,42.8014,5.9826,13.2980,4.59894,2453.740,38.4854
2024-01-01T13:18:49,2420,42.8014,5.9826,13.2979,4.59894,2453.762,38.4854
2024-01-01T13:21:49,2420,42.8014,5.9826,13.2978,4.59895,2453.717,38.4858
2024-01-01T13:24:49,2420,42.8014,5.9826,13.2978,4.59894,2453.754,38.4856
2024-01-01T13:27:49,2420,42.8014,5.9826,13.2975,4.59892,2453.702,38.4858
2024-01-01T13:30:49,2420,42.8014,5.9826,13.2979,4.59894,2453.740,38.4855
2024-01-01T13:33:50,2420,42.8014,5.9826,13.2980,4.59895,2453.717,38.4855
2024-01-01T13:36:49,2420,42.8014,5.9826,13.2981,4.59894,2453.740,38.4853
2024-01-01T13:39:49,2420,42.8014,5.9826,13.2980,4.59894,2453.740,38.4854
2024-01-01T13:42:49,2420,42.8014,5.9826,13.2979,4.59894,2453.740,38.4854
2024-01-01T13:45:49,2420,42.8014,5.9826,13.2981,4.59894,2453.740,38.4853
2024-01-01T13:48:49,2420,42.8014,5.9826,13.2979,4.59894,2453.717,38.4856
2024-01-01T13:51:50,2420,42.8014,5.9826,13.2973,4.59893,2453.740,38.4860
2024-01-01T13:54:49,2420,42.8014,5.9826,13.2977,4.59894,2453.717,38.4857
2024-01-01T13:57:49,2420,42.8014,5.9826,13.2975,4.59894,2453.717,38.4859
2024-01-01T14:00:49,2420,42.8014,5.9826,13.2978,4.59894,2453.717,38.4857
2024-01-01T14:03:49,2420,42.8014,5.9826,13.2975,4.59893,2453.740,38.4859
2024-01-01T14:06:49,2420,42.8014,5.9826,13.2978,4.59894,2453.717,38.4857
2024-01-01T14:09:49,2420,42.8014,5.9826,13.2979,4.59894,2453.702,38.4855
2024-01-01T14:12:49,2420,42.8014,5.9826,13.2978,4.59894,2453.717,38.4857
2024-01-01T14:15:49,2420,42.8014,5.9826,13.2975,4.59894,2453.717,38.4859
2024-01-01T14:18:49,2420,42.8014,5.9826,13.2976,4.59895,2453.695,38.4859
2024-01-01T14:21:49,2420,42.8014,5.9826,13.2978,4.59895,2453.717,38.4857
2024-01-01T14:24:49,2420,42.8014,5.9826,13.2980,4.59897,2453.695,38.4857
2024-01-01T14:27:49,2420,42.8014,5.9826,13.2980,4.59895,2453.717,38.4855
2024-01-01T14:30:50,2420,42.8014,5.9826,13.2979,4.59893,2453.717,38.4854
2024-01-01T14:33:49,2420,42.8014,5.9826,13.2982,4.59896,2453.680,38.4855
2024-01-01T14:36:50,2420,42.8014,5.9826,13.2978,4.59897,2453.672,38.4859
2024-01-01T14:39:49,2420,42.8014,5.9826,13.2979,4.59894,2453.657,38.4856
2024-01-01T14:42:49,2420,42.8014,5.9826,13.2978,4.59894,2453.709,38.4856
2024-01-01T14:45:49,2420,42.8014,5.9826,13.2981,4.59895,2453.732,38.4855
2024-01-01T14:48:49,2420,42.8014,5.9826,13.2975,4.59898,2453.695,38.4864
2024-01-01T14:51:49,2420,42.8014,5.9826,13.2977,4.59898,2453.717,38.4861
2024-01-01T14:54:49,2420,42.8014,5.9826,13.2979,4.59895,2453.680,38.4857
2024-01-01T14:57:49,2420,42.8014,5.9826,13.2977,4.59894,2453.672,38.4857
2024-01-01T15:00:49,2420,42.8014,5.9826,13.2981,4.59894,2453.732,38.4854
2024-01-01T15:03:50,2420,42.8014,5.9826,13.2978,4.59897,2453.717,38.4859
2024-01-01T15:06:49,2420,42.8014,5.9826,13.2979,4.59894,2453.695,38.4855
2024-01-01T15:09:49,2420,42.8014,5.9826,13.2979,4.59896,2453.672,38.4858
2024-01-01T15:12:50,2420,42.8014,5.9826,13.2977,4.59897,2453.672,38.4860
2024-01-01T15:15:49,2420,42.8014,5.9826,13.2979,4.59897,2453.695,38.4858
2024-01-01T15:18:49,2420,42.8014,5.9826,13.2978,4.59900,2453.672,38.4862
2024-01-01T15:21:50,2420,42.8014,5.9826,13.2978,4.59895,2453.695,38.4857
2024-01-01T15:24:49,2420,42.8014,5.9826,13.2977,4.59895,2453.695,38.4859
2024-01-01T15:27:49,2420,42.8014,5.9826,13.2979,4.59894,2453.695,38.4855
2024-01-01T15:30:50,2420,42.8014,5.9826,13.2978,4.59897,2453.695,38.4859
2024-01-01T15:33:49,2420,42.8014,5.9826,13.2978,4.59894,2453.672,38.4856
2024-01-01T15:36:49,2420,42.8014,5.9826,13.2977,4.59895,2453.672,38.4859
2024-01-01T15:39:49,2420,42.8014,5.9826,13.2975,4.59894,2453.695,38.4860
2024-01-01T15:42:50,2420,42.8014,5.9826,13.2979,4.59896,2453.672,38.4857
2024-01-01T15:45:49,2420,42.8014,5.9826,13.2975,4.59897,2453.672,38.4862
2024-01-01T15:48:49,2420,42.8014,5.9826,13.2980,4.59896,2453.672,38.4856
2024-01-01T15:51:50,2420,42.8014,5.9826,13.2978,4.59896,2453.672,38.4858
2024-01-01T15:54:49,2420,42.8014,5.9826,13.2976,4.59894,2453.672,38.4859
2024-01-01T15:57:49,2420,42.8014,5.9826,13.2976,4.59896,2453.649,38.4860
2024-01-01T16:00:49,2420,42.8014,5.9826,13.2980,4.59896,2453.672,38.4856
2024-01-01T16:03:49,2420,42.8014,5.9826,13.2978,4.59895,2453.672,38.4858